Flag for Singapore Weather past 2 weeks in Singapore, Singapore

Now
77 °F

Broken clouds.


Feels Like: 78 °F
Forecast: 76 / 83 °F
Wind: 1 mph from North

Location: Singapore / Paya Lebar

Current Time: Dec 20, 2014 at 7:52:58 AM

Latest Report: Dec 20, 2014 at 7:00 AM


Visibility: N/A

Pressure: 29.80 "Hg

Humidity: 94%

Dew point: 75 °F

Location of SingaporeLocation

Historic Weather in Singapore — Graph

°F

Singapore temperature yesterday

Maximum temperature yesterday: 81 °F (at 5:00 AM)
Minimum temperature yesterday: 77 °F (at 7:00 AM)
Average temperature yesterday: 78 °F

Past Weeks' High & Low Weather Summary

 TemperatureHumidityPressure
High95 °F (Dec 7, 2:00 PM)100% (Dec 19, 3:00 PM)29.92 "Hg (Dec 19, 3:00 PM)
Low77 °F (Dec 5, 7:00 AM)50% (Dec 7, 2:00 PM)29.74 "Hg (Dec 7, 2:00 PM)
Average83 °F77%29.83 "Hg
* Reported Dec 5 7:00 AM — Dec 20 7:00 AM, Singapore, Weather by CustomWeather, © 2014

Note: Actual official high and low records may vary slightly from our data, if they occured in-between our weather recording intervals... More about our weather records

Advertising

Singapore weather history for previous 24 hours

 ConditionsComfort  
Time TempWeatherWind HumidityBarometerVisibility
7:00 AM
Dec 20
77 °FBroken clouds.1 mph94%29.80 "HgN/A
6:00 AM77 °FPassing clouds.1 mph94%29.77 "HgN/A
5:00 AM77 °FPartly cloudy.2 mph94%29.80 "HgN/A
11:00 PM
Dec 19
77 °FPassing clouds.2 mph94%29.89 "HgN/A
10:00 PM77 °FPassing clouds.3 mph94%29.86 "HgN/A
9:00 PM77 °FPassing clouds.1 mph89%29.83 "HgN/A
8:00 PM77 °FPassing clouds.6 mph94%29.80 "HgN/A
7:00 PM77 °FLight rain. Partly sunny.3 mph94%29.80 "Hg5 mi
6:00 PM77 °FLight rain. Partly sunny.8 mph94%29.80 "Hg5 mi
5:00 PM77 °FLight rain. Overcast.7 mph94%29.80 "Hg5 mi
4:00 PM77 °FLight rain. Overcast.6 mph94%29.83 "Hg4 mi
3:00 PM77 °FRain. Overcast.6 mph100%29.86 "Hg3 mi
2:00 PM77 °FRain. Overcast.5 mph94%29.89 "Hg3 mi
1:00 PM77 °FRain. Overcast.5 mph94%29.89 "Hg3 mi
12:00 PM77 °FLight rain. Overcast.8 mph94%29.92 "Hg3 mi
11:00 AM79 °FLight rain. Low clouds.8 mph89%29.92 "Hg3 mi
10:00 AM79 °FLight rain. Partly sunny.5 mph89%29.92 "Hg5 mi
9:00 AM79 °FPartly sunny.6 mph89%29.89 "Hg6 mi
8:00 AM79 °FScattered showers. Broken clouds.9 mph89%29.86 "Hg5 mi
7:00 AM77 °FLots of rain. Partly sunny.10 mph94%29.83 "Hg2 mi
Weather by CustomWeather, © 2014

See weather overviewHow to use our weather pages